SUPERBIRD 8 (43271 NORAD) Tracking and Keplerian Element Data

This shows tracking and keplerian element data for the satellite.

Feedback or suggestion? Click here.




ElementValue
Catalog43271
NameSUPERBIRD 8
Epoch Orbit352
Epoch Day78.6400375
Epoch Year2019
RAAN217.8492
Inclination0.0155
Eccentricity0.0001406
Argument of Perigee141.8864
Mean Anonmoly209.5405
Mean Motion1.00271403
Decay Rate-1.18E-06
L11 43271U 18033A 19078.64003750 -.00000118 00000-0 00000-0 0 9993
L22 43271 0.0155 217.8492 0001406 141.8864 209.5405 1.00271403 3529

Live tracking and technical data element details for SUPERBIRD 8 (NORAD 43271). SUPERBIRD 8 can be tracked NOW for your location showing map with azimuth and elevation plus other details from your city location.

Track the satellite on the map from your city or location and see movement details for azimuth, elevation, latitude, longitude, range, height, and movement on the map or in text.







IsCatalogInMostPopularTable: catalog: 43271, numindb: 261
Update: records affected: 1



GetName: 43271 SUPERBIRD 8

Hit Count: updated at: Thu, 21 Mar 2019 02:12:01 GMT